This is the latest recevied weather packets stored in our database for station/object E20YUC-1. If no packets are shown the sender has not sent any weather packets the latest 10 day(s).
| Time | Temp. | Humidity | Pressure | Rain* | Wind** | Luminosity | Snow |
|---|---|---|---|---|---|---|---|
| 1787912287 | 91° F | 64% | 745.1 mmHg | 0 in | 0 mph | - | - |
| 1787911988 | 92° F | 60% | 745 mmHg | 0 in | 5 mph, 0° | - | - |
| 1787911689 | 94° F | 60% | 745 mmHg | 0 in | 24 mph, 22° | - | - |
| 1787911387 | 94° F | 60% | 744.5 mmHg | 0 in | 15 mph, 22° | - | - |
| 1787911087 | 94° F | 59% | 744.1 mmHg | 0 in | 0 mph | - | - |
| 1787910487 | 95° F | 59% | 744.1 mmHg | 0 in | 4 mph, 0° | - | - |
| 1787910188 | 59° F | 59% | 744.1 mmHg | 0 in | 7 mph, 0° | - | - |
| 1787909587 | 95° F | 58% | 744.1 mmHg | 0 in | 5 mph, 0° | - | - |
| 1787908986 | 37° F | 58% | 744.1 mmHg | 0 in | 1 mph, 0° | - | - |
| 1787908688 | 95° F | 58% | 744.1 mmHg | 0 in | 6 mph, 0° | - | - |
| 1787908387 | 95° F | 59% | 744.1 mmHg | 0 in | 2 mph, 0° | - | - |
| 1787908086 | 95° F | 59% | 744.1 mmHg | 0 in | 2 mph, 0° | - | - |
| 1787907486 | 95° F | 58% | 744.1 mmHg | 0 in | 4 mph, 0° | - | - |
| 1787907188 | 95° F | 58% | 744.1 mmHg | 0 in | 5 mph, 22° | - | - |
| 1787906886 | 95° F | 59% | 744.2 mmHg | 0 in | 2 mph, 0° | - | - |
| 1787906286 | 95° F | 59% | 744.3 mmHg | 0 in | 3 mph, 22° | - | - |
| 1787905986 | 95° F | 59% | 744.4 mmHg | 0 in | 4 mph, 22° | - | - |
| 1787905688 | 95° F | 59% | 744.5 mmHg | 0 in | 0 mph | - | - |
| 1787905386 | 95° F | 59% | 744.5 mmHg | 0 in | 4 mph, 22° | - | - |
| 1787905086 | 95° F | 59% | 744.5 mmHg | 0 in | 0 mph | - | - |
| 1787904486 | 95° F | 59% | 744.4 mmHg | 0 in | 3 mph, 0° | - | - |
| 1787904187 | 37° F | 58% | 744.4 mmHg | 0 in | 4 mph, 0° | - | - |
| 1787903886 | 95° F | 58% | 744.5 mmHg | 0 in | 0 mph | - | - |
| 1787903285 | 95° F | 58% | 744.8 mmHg | 0 in | 6 mph, 0° | - | - |
| 1787902985 | 95° F | 58% | 744.9 mmHg | 0 in | 10 mph, 0° | - | - |
* Rain latest hour (hover to see other rain measurements)
** Current wind speed in m/s (hover to see current wind gust speed)